Weather History for Punta Gorda, FL

Change the Weather History Date:

Wednesday, February 6, 2013

  Actual Average Record
Temperature  
Mean Temperature 66 °F -  
Max Temperature 81 °F 72 °F 82 °F (1997)
Min Temperature 52 °F 50 °F 30 °F (2009)
Cooling Degree Days 2    
Growing Degree Days 16 (Base 50)    
Moisture  
Dew Point 57 °F    
Average Humidity 70    
Maximum Humidity 93    
Minimum Humidity 45    
Precipitation  
Precipitation 0.00 in - - ()
Sea Level Pressure  
Sea Level Pressure 30.09 in    
Wind  
Wind Speed 4 mph (SSE)    
Max Wind Speed 13 mph    
Max Gust Speed -    
Visibility 10 miles    
Events      
Averages and records for this station are not official NWS values.
T = Trace of Precipitation, MM = Missing Value Source: NWS Daily Summary

Daily Weather History Graph

Daily Weather History Graph

Search for Another Location

Airport:

Trip Planner

Search our weather history database for the weather conditions in past years. The results will help you decide how hot, cold, wet, or windy it might be!

Date:

Astronomy

Feb. 06, 2013 Rise Set
Actual Time 7:10 AM EST 6:14 PM EST
Civil Twilight 6:46 AM EST 6:38 PM EST
Nautical Twilight 6:18 AM EST 7:05 PM EST
Astronomical Twilight 5:51 AM EST 7:33 PM EST
Moon 3:42 AM EST (2/6) 2:40 PM EST (2/6)
Length of Visible Light 11h 51m
Length of Day
11h 03m
Waning Crescent, 17% of the Moon is Illuminated
Feb 6
Waning Crescent
Feb 10
New
Feb 17
First Quarter
Feb 25
Full
Mar 4
Last Quarter

Hourly Weather History & Observations

Time (EST) Temp. Heat Index Dew Point Humidity Pressure Visibility Wind Dir Wind Speed Gust Speed Precip Events Conditions
12:53 AM 60.1 °F - 54.0 °F 80% 30.07 in 10.0 mi East 3.5 mph - N/A   Partly Cloudy
2:53 AM 55.0 °F - 52.0 °F 89% 30.06 in 10.0 mi East 3.5 mph - N/A   Clear
3:53 AM 54.0 °F - 52.0 °F 93% 30.06 in 10.0 mi ESE 3.5 mph - N/A   Clear
4:53 AM 52.0 °F - 50.0 °F 93% 30.07 in 10.0 mi Calm Calm - N/A   Clear
5:53 AM 55.9 °F - 52.0 °F 87% 30.08 in 10.0 mi ESE 3.5 mph - N/A   Clear
6:53 AM 54.0 °F - 51.1 °F 90% 30.11 in 10.0 mi Calm Calm - N/A   Clear
7:53 AM 55.9 °F - 54.0 °F 93% 30.12 in 10.0 mi East 3.5 mph - N/A   Clear
8:53 AM 66.0 °F - 53.1 °F 63% 30.13 in 10.0 mi East 3.5 mph - N/A   Mostly Cloudy
9:53 AM 73.9 °F - 55.0 °F 52% 30.14 in 10.0 mi East 4.6 mph - N/A   Mostly Cloudy
10:53 AM 77.0 °F - 55.9 °F 48% 30.14 in 10.0 mi SSE 6.9 mph - N/A   Clear
11:53 AM 80.1 °F 80.4 °F 57.0 °F 45% 30.12 in 10.0 mi SSW 5.8 mph - N/A   Mostly Cloudy
12:53 PM 79.0 °F - 57.9 °F 48% 30.10 in 10.0 mi WSW 5.8 mph - N/A   Scattered Clouds
1:53 PM 81.0 °F 81.3 °F 59.0 °F 47% 30.07 in 10.0 mi West 9.2 mph - N/A   Scattered Clouds
2:53 PM 80.1 °F 80.4 °F 57.0 °F 45% 30.08 in 10.0 mi WSW 12.7 mph - N/A   Scattered Clouds
3:53 PM 80.1 °F 80.4 °F 57.0 °F 45% 30.06 in 10.0 mi WSW 8.1 mph - N/A   Clear
4:53 PM 79.0 °F - 57.0 °F 47% 30.06 in 10.0 mi SW 8.1 mph - N/A   Clear
5:53 PM 75.0 °F - 60.1 °F 60% 30.06 in 10.0 mi WSW 6.9 mph - N/A   Clear
6:53 PM 71.1 °F - 62.1 °F 73% 30.06 in 10.0 mi WSW 4.6 mph - N/A   Clear
7:53 PM 68.0 °F - 61.0 °F 78% 30.08 in 10.0 mi Calm Calm - N/A   Clear
8:53 PM 66.9 °F - 61.0 °F 81% 30.10 in 10.0 mi ESE 4.6 mph - N/A   Mostly Cloudy
9:53 PM 68.0 °F - 61.0 °F 78% 30.11 in 10.0 mi Calm Calm - N/A   Overcast
10:53 PM 66.9 °F - 62.1 °F 84% 30.11 in 10.0 mi Calm Calm - N/A   Overcast
11:53 PM 64.9 °F - 61.0 °F 87% 30.10 in 10.0 mi ESE 6.9 mph - N/A   Mostly Cloudy